Location: Wien
(48.2082°N, 16.3738°E)
Time: 02:57:08
(UTC+02:00)

MOZHAYETS 4 - Pass Details

Date: 25 April 2024
Orbit: 652 x 670 km, 98.3° (Epoch: 23 May)

Event Time Altitude Azimuth Distance (km) Brightness Sun altitude
Exits shadow 04:34:40 - 182° (S) 2,980 10.7 -11.2°
Reaches altitude 10° 04:36:55 10° 188° (S) 2,096 9.9 -10.9°
Maximum altitude 04:41:18 44° 261° (W) 925 8.1 -10.3°
Drops below altitude 10° 04:45:43 10° 334° (NNW) 2,112 10.4 -9.7°
Sets 04:48:03 0° 341° (NNW) 3,029 11.3 -9.4°
